| time (UTC) | temp F | wind direction | speed knots | gust knots | rain 1hr in | rain 24hr in | rain mn in | humidity % | barometer mb |
| 20260906232015 | 85 | 157 | 4.3 | 8.7 | 0.00 | 0.00 | 0.00 | 58 | 1014.2 |
| 20260906231015 | 84 | 180 | 4.3 | 9.6 | 0.00 | 0.00 | 0.00 | 60 | 1014.3 |
| 20260906230015 | 84 | 180 | 4.3 | 8.7 | 0.00 | 0.00 | 0.00 | 60 | 1014.2 |
| 20260906225015 | 84 | 180 | 5.2 | 10.4 | 0.00 | 0.00 | 0.00 | 60 | 1014.3 |
| 20260906224015 | 83 | 180 | 5.2 | 10.4 | 0.00 | 0.00 | 0.00 | 61 | 1014.5 |
| 20260906223015 | 83 | 180 | 4.3 | 9.6 | 0.00 | 0.00 | 0.00 | 61 | 1014.7 |
| 20260906222015 | 83 | 180 | 5.2 | 9.6 | 0.00 | 0.00 | 0.00 | 60 | 1014.9 |
| 20260906221015 | 83 | 180 | 7.0 | 12.2 | 0.00 | 0.00 | 0.00 | 61 | 1014.9 |
| 20260906220015 | 83 | 180 | 4.3 | 8.7 | 0.00 | 0.00 | 0.00 | 60 | 1014.9 |
| 20260906215015 | 84 | 157 | 7.0 | 11.3 | 0.00 | 0.00 | 0.00 | 58 | 1015.0 |
| 20260906214015 | 85 | 135 | 5.2 | 9.6 | 0.00 | 0.00 | 0.00 | 57 | 1015.2 |
| 20260906213015 | 86 | 112 | 5.2 | 10.4 | 0.00 | 0.00 | 0.00 | 57 | 1015.2 |
| 20260906212015 | 86 | 112 | 5.2 | 12.2 | 0.00 | 0.00 | 0.00 | 54 | 1015.2 |
| 20260906211015 | 86 | 90 | 8.7 | 12.2 | 0.00 | 0.00 | 0.00 | 53 | 1015.1 |
| 20260906210015 | 86 | 112 | 7.0 | 13.0 | 0.00 | 0.00 | 0.00 | 55 | 1015.1 |
| 20260906205015 | 86 | 90 | 7.8 | 12.2 | 0.00 | 0.00 | 0.00 | 54 | 1015.2 |
| 20260906204015 | 86 | 112 | 5.2 | 11.3 | 0.00 | 0.00 | 0.00 | 53 | 1015.5 |
| 20260906203015 | 87 | 112 | 4.3 | 7.8 | 0.00 | 0.00 | 0.00 | 52 | 1015.5 |
| 20260906202015 | 87 | 157 | 3.5 | 6.1 | 0.00 | 0.00 | 0.00 | 51 | 1015.6 |
| 20260906201015 | 88 | 180 | 2.6 | 6.1 | 0.00 | 0.00 | 0.00 | 50 | 1015.8 |
| 20260906200015 | 88 | 202 | 3.5 | 5.2 | 0.00 | 0.00 | 0.00 | 49 | 1015.6 |
| 20260906195015 | 88 | 135 | 1.7 | 3.5 | 0.00 | 0.00 | 0.00 | 50 | 1015.8 |
| 20260906194015 | 88 | 337 | 0.9 | 2.6 | 0.00 | 0.00 | 0.00 | 52 | 1015.7 |
| 20260906193015 | 88 | 67 | 5.2 | 9.6 | 0.00 | 0.00 | 0.00 | 51 | 1016.0 |
| 20260906192116 | 87 | 337 | 4.3 | 8.7 | 0.00 | 0.00 | 0.00 | 52 | 1016.0 |
| 20260906191015 | 89 | 315 | 8.7 | 13.0 | 0.00 | 0.00 | 0.00 | 50 | 1016.1 |
| 20260906190015 | 88 | 337 | 7.0 | 10.4 | 0.00 | 0.00 | 0.00 | 52 | 1016.3 |
| 20260906185015 | 87 | 337 | 7.0 | 11.3 | 0.00 | 0.00 | 0.00 | 54 | 1016.4 |
| 20260906184015 | 88 | 0 | 8.7 | 12.2 | 0.00 | 0.00 | 0.00 | 52 | 1016.6 |
| 20260906183015 | 87 | 45 | 8.7 | 13.0 | 0.00 | 0.00 | 0.00 | 51 | 1016.7 |
| 20260906182015 | 86 | 22 | 9.6 | 13.9 | 0.00 | 0.00 | 0.00 | 55 | 1016.6 |
| 20260906181015 | 86 | 67 | 9.6 | 13.9 | 0.00 | 0.00 | 0.00 | 52 | 1016.8 |
| 20260906180015 | 87 | 90 | 9.6 | 13.0 | 0.00 | 0.00 | 0.00 | 49 | 1017.0 |
| 20260906175015 | 87 | 90 | 5.2 | 9.6 | 0.00 | 0.00 | 0.00 | 49 | 1017.1 |
| 20260906174015 | 87 | 90 | 1.7 | 3.5 | 0.00 | 0.00 | 0.00 | 50 | 1017.0 |
| 20260906173016 | 88 | 112 | 3.5 | 8.7 | 0.00 | 0.00 | 0.00 | 49 | 1017.4 |
| 20260906172015 | 89 | 112 | 4.3 | 8.7 | 0.00 | 0.00 | 0.00 | 47 | 1017.5 |
| 20260906171116 | 88 | 202 | 6.1 | 10.4 | 0.00 | 0.00 | 0.00 | 48 | 1017.5 |
| 20260906170015 | 88 | 90 | 2.6 | 5.2 | 0.00 | 0.00 | 0.00 | 50 | 1017.7 |
| 20260906165015 | 87 | 135 | 3.5 | 7.0 | 0.00 | 0.00 | 0.00 | 49 | 1017.8 |
| 20260906164015 | 88 | 202 | 5.2 | 9.6 | 0.00 | 0.00 | 0.00 | 48 | 1017.9 |
| 20260906163015 | 87 | 202 | 5.2 | 8.7 | 0.00 | 0.00 | 0.00 | 50 | 1017.7 |
| 20260906162015 | 86 | 202 | 4.3 | 7.8 | 0.00 | 0.00 | 0.00 | 55 | 1017.4 |
| 20260906161015 | 86 | 202 | 4.3 | 7.0 | 0.00 | 0.00 | 0.00 | 55 | 1017.8 |
| 20260906160015 | 85 | 202 | 3.5 | 6.1 | 0.00 | 0.00 | 0.00 | 55 | 1017.6 |
| 20260906155016 | 83 | 202 | 3.5 | 7.0 | 0.00 | 0.00 | 0.00 | 59 | 1017.6 |
| 20260906154116 | 83 | 247 | 4.3 | 8.7 | 0.00 | 0.00 | 0.00 | 59 | 1017.3 |
| 20260906153015 | 84 | 180 | 5.2 | 10.4 | 0.00 | 0.00 | 0.00 | 61 | 1017.5 |
| 20260906152016 | 82 | 202 | 3.5 | 5.2 | 0.00 | 0.00 | 0.00 | 63 | 1017.3 |
| 20260906151015 | 81 | 202 | 4.3 | 8.7 | 0.00 | 0.00 | 0.00 | 65 | 1017.1 |
| 20260906150015 | 80 | 180 | 3.5 | 6.1 | 0.00 | 0.00 | 0.00 | 67 | 1017.0 |
| 20260906145015 | 81 | 202 | 5.2 | 8.7 | 0.00 | 0.00 | 0.00 | 67 | 1017.1 |
| 20260906144015 | 80 | 202 | 4.3 | 6.1 | 0.00 | 0.00 | 0.00 | 69 | 1017.0 |
| 20260906143016 | 79 | 202 | 5.2 | 9.6 | 0.00 | 0.00 | 0.00 | 70 | 1017.1 |
| 20260906142016 | 79 | 180 | 7.0 | 10.4 | 0.00 | 0.00 | 0.00 | 70 | 1017.1 |
| 20260906141015 | 78 | 202 | 7.0 | 11.3 | 0.00 | 0.00 | 0.00 | 71 | 1017.1 |
| 20260906140015 | 78 | 202 | 5.2 | 10.4 | 0.00 | 0.00 | 0.00 | 72 | 1016.9 |
| 20260906135016 | 77 | 180 | 3.5 | 6.1 | 0.00 | 0.00 | 0.00 | 73 | 1016.9 |
| 20260906134015 | 76 | 180 | 3.5 | 7.8 | 0.00 | 0.00 | 0.00 | 77 | 1016.8 |
| 20260906133015 | 75 | 180 | 2.6 | 5.2 | 0.00 | 0.00 | 0.00 | 77 | 1016.4 |
| 20260906132016 | 74 | 180 | 0.9 | 2.6 | 0.00 | 0.00 | 0.00 | 79 | 1016.3 |
| 20260906131015 | 72 | 180 | 0.9 | 1.7 | 0.00 | 0.00 | 0.00 | 81 | 1016.2 |
| 20260906130016 | 71 | 180 | 0.9 | 2.6 | 0.00 | 0.00 | 0.00 | 82 | 1016.1 |
| 20260906125016 | 70 | 180 | 0.9 | 1.7 | 0.00 | 0.00 | 0.00 | 83 | 1015.7 |
| 20260906123116 | 69 | 202 | 0.9 | 1.7 | 0.00 | 0.00 | 0.00 | 84 | 1015.5 |
| 20260906122015 | 69 | 157 | 0.9 | 0.9 | 0.00 | 0.00 | 0.00 | 83 | 1015.2 |
| 20260906121015 | 69 | 67 | 0.9 | 1.7 | 0.00 | 0.00 | 0.00 | 84 | 1015.0 |
| 20260906120016 | 69 | 45 | 1.7 | 1.7 | 0.00 | 0.00 | 0.00 | 83 | 1015.0 |
| 20260906115015 | 69 | 22 | 0.9 | 1.7 | 0.00 | 0.00 | 0.00 | 82 | 1015.1 |
| 20260906114015 | 71 | 90 | 0.9 | 1.7 | 0.00 | 0.00 | 0.00 | 80 | 1015.1 |
| 20260906113015 | 72 | 0.0 | 0.9 | 0.00 | 0.00 | 0.00 | 80 | 1015.2 | |
| 20260906112015 | 72 | 180 | 0.9 | 1.7 | 0.00 | 0.00 | 0.00 | 80 | 1015.2 |
| 20260906111016 | 72 | 180 | 0.9 | 1.7 | 0.00 | 0.00 | 0.00 | 80 | 1015.0 |
| 20260906110016 | 72 | 180 | 0.9 | 1.7 | 0.00 | 0.00 | 0.00 | 80 | 1014.7 |
| 20260906105016 | 72 | 202 | 2.6 | 3.5 | 0.00 | 0.00 | 0.00 | 80 | 1014.6 |
| 20260906104016 | 71 | 180 | 2.6 | 3.5 | 0.00 | 0.00 | 0.00 | 80 | 1014.7 |
| 20260906103016 | 71 | 202 | 1.7 | 2.6 | 0.00 | 0.00 | 0.00 | 80 | 1015.0 |
| 20260906102015 | 71 | 180 | 0.9 | 1.7 | 0.00 | 0.00 | 0.00 | 80 | 1014.9 |
| 20260906101015 | 71 | 180 | 0.9 | 2.6 | 0.00 | 0.00 | 0.00 | 80 | 1014.9 |
| 20260906100016 | 71 | 202 | 2.6 | 3.5 | 0.00 | 0.00 | 0.00 | 80 | 1014.8 |
| 20260906095021 | 71 | 180 | 2.6 | 3.5 | 0.00 | 0.00 | 0.00 | 79 | 1014.9 |
| 20260906094016 | 71 | 180 | 1.7 | 2.6 | 0.00 | 0.00 | 0.00 | 79 | 1014.8 |
| 20260906093116 | 72 | 157 | 1.7 | 2.6 | 0.00 | 0.00 | 0.00 | 78 | 1015.0 |
| 20260906092116 | 72 | 157 | 1.7 | 3.5 | 0.00 | 0.00 | 0.00 | 78 | 1014.8 |
| 20260906090016 | 73 | 180 | 2.6 | 5.2 | 0.00 | 0.00 | 0.00 | 77 | 1015.3 |
| 20260906085016 | 73 | 180 | 2.6 | 5.2 | 0.00 | 0.00 | 0.00 | 76 | 1015.3 |
| 20260906084016 | 73 | 180 | 3.5 | 5.2 | 0.00 | 0.00 | 0.00 | 76 | 1015.4 |
| 20260906083016 | 73 | 180 | 4.3 | 6.1 | 0.00 | 0.00 | 0.00 | 76 | 1015.3 |
| 20260906081016 | 74 | 180 | 4.3 | 8.7 | 0.00 | 0.00 | 0.00 | 76 | 1015.4 |
| 20260906080016 | 74 | 180 | 2.6 | 4.3 | 0.00 | 0.00 | 0.00 | 75 | 1015.4 |
| 20260906075016 | 74 | 180 | 3.5 | 5.2 | 0.00 | 0.00 | 0.00 | 75 | 1015.6 |
| 20260906073016 | 74 | 180 | 3.5 | 7.8 | 0.00 | 0.00 | 0.00 | 73 | 1016.0 |
| 20260906072016 | 75 | 180 | 3.5 | 6.1 | 0.00 | 0.00 | 0.00 | 73 | 1016.2 |
| 20260906071016 | 75 | 180 | 2.6 | 5.2 | 0.00 | 0.00 | 0.00 | 73 | 1016.0 |
| 20260906070016 | 75 | 180 | 3.5 | 6.1 | 0.00 | 0.00 | 0.00 | 72 | 1016.2 |
| 20260906065016 | 76 | 180 | 5.2 | 8.7 | 0.00 | 0.00 | 0.00 | 71 | 1016.1 |
| 20260906064116 | 76 | 180 | 4.3 | 7.0 | 0.00 | 0.00 | 0.00 | 70 | 1016.2 |
| 20260906063016 | 76 | 180 | 5.2 | 7.8 | 0.00 | 0.00 | 0.00 | 69 | 1016.4 |
| 20260906062016 | 77 | 180 | 4.3 | 11.3 | 0.00 | 0.00 | 0.00 | 69 | 1016.5 |
| 20260906061016 | 77 | 180 | 4.3 | 7.8 | 0.00 | 0.00 | 0.00 | 68 | 1016.7 |
| 20260906060016 | 77 | 157 | 3.5 | 7.8 | 0.00 | 0.00 | 0.00 | 68 | 1016.5 |
| 20260906055016 | 78 | 180 | 4.3 | 9.6 | 0.00 | 0.00 | 0.00 | 67 | 1016.3 |
| 20260906054016 | 78 | 180 | 4.3 | 10.4 | 0.00 | 0.00 | 0.00 | 66 | 1016.2 |
| 20260906053016 | 78 | 180 | 5.2 | 9.6 | 0.00 | 0.00 | 0.00 | 65 | 1016.5 |
| 20260906052016 | 79 | 180 | 5.2 | 10.4 | 0.00 | 0.00 | 0.00 | 64 | 1016.2 |
| 20260906051016 | 79 | 180 | 6.1 | 11.3 | 0.00 | 0.00 | 0.00 | 63 | 1016.1 |
| 20260906050016 | 80 | 180 | 5.2 | 9.6 | 0.00 | 0.00 | 0.00 | 60 | 1016.1 |
| 20260906045016 | 80 | 180 | 8.7 | 17.4 | 0.00 | 0.00 | 0.00 | 61 | 1016.4 |
| 20260906044016 | 79 | 157 | 2.6 | 4.3 | 0.00 | 0.00 | 0.00 | 61 | 1015.9 |
| 20260906043016 | 79 | 180 | 1.7 | 3.5 | 0.00 | 0.00 | 0.00 | 61 | 1015.8 |
| 20260906042016 | 78 | 157 | 1.7 | 4.3 | 0.00 | 0.00 | 0.00 | 62 | 1015.9 |
| 20260906041015 | 78 | 157 | 1.7 | 2.6 | 0.00 | 0.00 | 0.00 | 62 | 1016.1 |
| 20260906040016 | 79 | 157 | 1.7 | 2.6 | 0.00 | 0.00 | 0.00 | 61 | 1015.8 |
| 20260906035015 | 79 | 135 | 1.7 | 4.3 | 0.00 | 0.00 | 0.00 | 60 | 1015.7 |
| 20260906034016 | 79 | 157 | 1.7 | 3.5 | 0.00 | 0.00 | 0.00 | 60 | 1015.8 |
| 20260906033016 | 79 | 180 | 1.7 | 4.3 | 0.00 | 0.00 | 0.00 | 60 | 1015.6 |
| 20260906032015 | 79 | 180 | 1.7 | 2.6 | 0.00 | 0.00 | 0.00 | 60 | 1015.8 |
| 20260906031016 | 79 | 157 | 1.7 | 2.6 | 0.00 | 0.00 | 0.00 | 60 | 1015.7 |
| 20260906030017 | 80 | 157 | 0.9 | 3.5 | 0.00 | 0.00 | 0.00 | 60 | 1015.4 |
| 20260906025017 | 80 | 135 | 1.7 | 3.5 | 0.00 | 0.00 | 0.00 | 60 | 1015.3 |
| 20260906024016 | 80 | 135 | 1.7 | 3.5 | 0.00 | 0.00 | 0.00 | 60 | 1014.6 |
| 20260906023016 | 80 | 135 | 1.7 | 2.6 | 0.00 | 0.00 | 0.00 | 59 | 1014.5 |
| 20260906022016 | 80 | 135 | 0.9 | 2.6 | 0.00 | 0.00 | 0.00 | 59 | 1014.3 |
| 20260906021021 | 81 | 135 | 0.9 | 1.7 | 0.00 | 0.00 | 0.00 | 59 | 1014.3 |
| 20260906020015 | 81 | 157 | 0.9 | 1.7 | 0.00 | 0.00 | 0.00 | 58 | 1014.1 |
| 20260906014016 | 83 | 135 | 0.9 | 2.6 | 0.00 | 0.00 | 0.00 | 56 | 1013.9 |
| 20260906013016 | 83 | 157 | 0.9 | 1.7 | 0.00 | 0.00 | 0.00 | 55 | 1013.9 |
| 20260906012016 | 84 | 135 | 0.9 | 2.6 | 0.00 | 0.00 | 0.00 | 54 | 1013.7 |
| 20260906011016 | 84 | 157 | 1.7 | 4.3 | 0.00 | 0.00 | 0.00 | 54 | 1013.7 |
| 20260906005016 | 86 | 135 | 1.7 | 4.3 | 0.00 | 0.00 | 0.00 | 55 | 1013.7 |
| 20260906004016 | 86 | 135 | 1.7 | 4.3 | 0.00 | 0.00 | 0.00 | 54 | 1013.7 |
| 20260906003016 | 86 | 180 | 1.7 | 3.5 | 0.00 | 0.00 | 0.00 | 54 | 1013.7 |
| 20260906001016 | 87 | 180 | 2.6 | 4.3 | 0.00 | 0.00 | 0.00 | 53 | 1013.4 |
| 20260906000016 | 87 | 180 | 4.3 | 8.7 | 0.00 | 0.00 | 0.00 | 52 | 1013.2 |
| 20260905235016 | 88 | 180 | 4.3 | 7.8 | 0.00 | 0.00 | 0.00 | 53 | 1013.3 |
| 20260905234016 | 87 | 202 | 5.2 | 9.6 | 0.00 | 0.00 | 0.00 | 54 | 1013.5 |